Location: *
(43.4667°N, 11.6833°E)
Time: 05:26:15
(UTC+00:00)

USA 229 DEB - Pass Details

Date: 19 July 2019
Orbit: 1003 x 1210 km, 63.4° (Epoch: 18 August)

Event Time Altitude Azimuth Distance (km) Brightness Sun altitude
Rises 20:44:18 0° 212° (SSW) 3,724 6.3 -16.5°
Reaches altitude 10° 20:46:51 10° 212° (SSW) 2,788 5.7 -16.8°
Maximum altitude 20:53:25 86° 126° (SE) 1,047 3.6 -17.5°
Drops below altitude 10° 21:00:18 10° 37° (NE) 2,919 6.2 -18.2°
Sets 21:03:01 0° 38° (NE) 3,908 6.9 -18.5°
